Regional Weather Roundup
Issued by NWS

Home | Current Version | Previous Version | Text Only | Print | Product List | Glossary On
Versions: 1 2 3 4 5 6 7 8 9 10 11 12 13 14 15 16 17 18 19 20 21 22 23 24 25 26 27 28 29 30 31 32 33 34 35 36 37 38 39 40 41 42 43 44 45 46 47 48 49 50
872
ASUS43 KMPX 240310
RWRMN
WEATHER ROUNDUP FOR MINNESOTA
NATIONAL WEATHER SERVICE TWIN CITIES/CHANHASSEN MN
1000 PM CDT SAT SEP 23 2017


NOTE: "FAIR" INDICATES FEW OR NO CLOUDS BELOW 12,000 FEET WITH NO
SIGNIFICANT WEATHER AND/OR OBSTRUCTIONS TO VISIBILITY. N/A MEANS
CURRENT SKY AND/OR WEATHER CONDITIONS ARE NOT AVAILABLE.

MNZ060>063-068>070-240400-
   Twin Cities Metro

CITY           SKY/WX    TMP DP  RH WIND       PRES   REMARKS
TWIN CITIES    MOCLDY    79  69  71 SE8       29.92S
ST PAUL        PTCLDY    75  71  87 SE6       29.92F
CRYSTAL        CLOUDY    76  68  76 W12       29.91S
LAKEVILLE      PTCLDY    72  66  83 CALM      29.93S
EDEN PRAIRIE   MOCLDY    78  70  76 VRB5      29.91S
SOUTH ST PAUL  PTCLDY    78  68  72 SE5       29.92F
LAKE ELMO      FAIR      77  70  78 SE5       29.94F
$$
MNZ001>005-007-008-013>017-022>024-027-028-240400-
   Northwest Minnesota

CITY           SKY/WX    TMP DP  RH WIND       PRES   REMARKS
BEMIDJI        CLOUDY    54  53  96 NE5       30.04S
HALLOCK          N/A     57  50  77 N10       30.04F
ROSEAU           N/A     55  52  88 N10       30.04F
WARROAD        CLOUDY    55  52  88 N8        30.04F
THIEF RVR FALL CLOUDY    56  51  84 NE10      30.04S
CROOKSTON      RAIN      57  52  82 NE5       30.03F
FOSSTON        RAIN      54  52  94 NE6       30.03F
DETROIT LAKES  LGT RAIN  55  54  94 E10       30.01F
MOORHEAD       CLOUDY    55  54  94 E10       29.98F
PARK RAPIDS    LGT RAIN  57  54  89 NE6       30.03F
MAHNOMEN       LGT RAIN  54  53  97 E8        30.02S
$$
MNZ006-009>011-018-025>026-240400-
   North Central Minnesota

CITY           SKY/WX    TMP DP  RH WIND       PRES   REMARKS
BAUDETTE       CLOUDY    55  53  93 NE5       30.03F
FLAG ISLAND    CLOUDY    55  52  88 N10       30.03F
INTL FALLS     CLOUDY    57  54  89 N6        30.02F
WASKISH        CLOUDY    55  52  88 NE3       30.05
BIG FORK       CLOUDY    57  54  88 CALM      30.04F
LONGVILLE      LGT RAIN  57  57 100 NE3       30.02S
GRAND RAPIDS   LGT RAIN  59  57  93 VRB3      30.05S
CRANE LAKE     CLOUDY    57  55  94 CALM      30.06S
ORR            CLOUDY    57  52  82 CALM      30.02R
COOK           CLOUDY    59  55  88 CALM      30.05S
WALKER         LGT RAIN  55  54  96 N3        30.04R
$$
MNZ012-019>021-037-240400-
   Northeast Minnesota

CITY           SKY/WX    TMP DP  RH WIND       PRES   REMARKS
DULUTH         MOCLDY    66  65  96 N8        30.00S
ELY            CLOUDY    61  57  88 CALM      30.03F
HIBBING        LGT RAIN  58  57  97 N3        30.03F
EVELETH        TSTM      63  57  82 NW3       30.05R
DULUTH HARBOR  CLOUDY    70  66  88 N12       29.97F
GRAND MARAIS     N/A     70  64  81 VRB3      29.97R
$$
MNZ029>031-032-039>041-046>048-054>057-064-240400-
   West Central Minnesota

CITY           SKY/WX    TMP DP  RH WIND       PRES   REMARKS
FERGUS FALLS   LGT RAIN  57  57 100 E9        29.97F
WHEATON        CLOUDY    55  54  94 E7        29.98S
ALEXANDRIA     HVY RAIN  58  58 100 NE8       29.99F FOG
ELBOW LAKE     RAIN      58  58 100 NE12G18   29.96F
WADENA         LGT RAIN  55  55 100 N6        30.02S
GLENWOOD       RAIN      59  57  94 NE14      29.97F
APPLETON       DRIZZLE   61  57  88 N10       29.93R
BENSON         HVY RAIN  61  59  94 NE15G21   29.92F
ORTONVILLE     HVY RAIN  55  54  94 N7        29.95R
MADISON        CLOUDY    61  61 100 NW7       29.95R
WILLMAR        FAIR      64  64 100 NE9       29.93F
$$
MNZ033>034-036-042>043-049>051-058-059-240400-
   Central Minnesota

CITY           SKY/WX    TMP DP  RH WIND       PRES   REMARKS
ST CLOUD       CLOUDY    65  65 100 N6        29.95R
SAUK CENTRE    CLOUDY    60  59  97 N8        29.97S
PAYNESVILLE    CLOUDY    64  64  99 NE8       29.94F
AITKIN         RAIN      59  57  94 N3        30.00F
PINE RIVER     RAIN      55  54  94 CALM      30.05S
BRAINERD       LGT RAIN  59  58  96 NE9       29.97F FOG
STAPLES        RAIN      55  55 100 NW7       30.03R
LITTLE FALLS   HVY RAIN  59  57  94 CALM      29.99R
LITCHFIELD     CLOUDY    68  68 100 NE6       29.95S
BUFFALO        CLOUDY    68  63  84 CALM      29.96S
MAPLE LAKE     CLOUDY    68  66  94 N6        29.96R
HUTCHINSON     CLOUDY    69  67  92 NE6       29.94S
$$
MNZ037-044-045-052-053-240400-
   East Central Minnesota

CITY           SKY/WX    TMP DP  RH WIND       PRES   REMARKS
PRINCETON      CLOUDY    70  66  88 N6        29.95F
MORA           TSTM      64  63  94 W14       29.99S
RUSH CITY      CLOUDY    70  68  92 NW3       29.95R
MOOSE LAKE     CLOUDY    64  63  94 N6        29.96F
HINCKLEY       MOCLDY    72  68  88 N12G22    29.96S
CLOQUET        CLOUDY    66  61  82 N6        30.00S
MCGREGOR       CLOUDY    63  61  94 N5        30.01F
$$
MNZ071>073-080-081-089-090-097-098-240400-
   Southwest Minnesota

CITY           SKY/WX    TMP DP  RH WIND       PRES   REMARKS
MONTEVIDEO     CLOUDY    59  59 100 CALM      29.93S
GRANITE FALLS  CLOUDY    59  58  97 NW5       29.94S
CANBY          CLOUDY    56  55  96 W8        29.98R
MARSHALL       CLOUDY    55  55 100 N6        29.95R FOG
REDWOOD FALLS  CLOUDY    65  62  90 N8        29.92S
OLIVIA         CLOUDY    63  61  94 NE3       29.92R
PIPESTONE      CLOUDY    64  63  94 SE8       29.91S
WORTHINGTON    CLOUDY    62  61  96 NE5       29.94S
JACKSON        CLOUDY    66  63  88 CALM      29.95R
TRACY          CLOUDY    62  61  99 CALM      29.94S
SLAYTON        PTCLDY    64  57  78 E6        29.94S
$$
MNZ065>067-074>077-082>085-091>093-240400-
   South Central Minnesota

CITY           SKY/WX    TMP DP  RH WIND       PRES   REMARKS
MANKATO        MOCLDY    74  65  73 SW7       29.93R
NEW ULM        CLOUDY    68  64  88 E3        29.92S
ST JAMES       MOCLDY    66  64  94 CALM      29.94S
FAIRMONT       MOCLDY    74  64  71 S8        29.93S
FARIBAULT      PTCLDY    75  64  69 SE6       29.94F
OWATONNA       MOCLDY    79  63  57 S10       29.95S
WASECA         MOCLDY    73  63  68 SE7       29.95S
ALBERT LEA     PTCLDY    79  64  61 S6        29.96S
$$
MNZ078>079-086>088-094>096-240400-
   Southeast Minnesota

CITY           SKY/WX    TMP DP  RH WIND       PRES   REMARKS
ROCHESTER      CLEAR     71  64  78 S7        29.99S
RED WING       PTCLDY    75  64  69 E3        29.93F
STANTON        PTCLDY    78  64  60 S8        29.92F
DODGE CENTER   CLOUDY    70  63  78 SE8       29.98S
WINONA         PTCLDY    70  68  94 CALM      29.98R
AUSTIN         CLEAR     75  63  64 S6        29.97S
PRESTON        CLEAR     75  62  63 S9        30.01R
$$
ABBREVIATIONS USED IN REMARKS
   TC - TEMPERATURES IN CELSIUS
  WCI - WIND CHILL INDEX
   HX - HEAT INDEX
  VSB - VISIBILITY
$$




USA.gov is the U.S. government's official web portal to all federal, state and local government web resources and services.